GFSFLT2_850_thetae_105.txt.gz
Theta_e
322 321 321 321 321 321 321 322 324 323 323 323 323 324 324 326 321 319 319 317 317 313 312 310 309 309 309
322 322 321 321 321 319 320 321 322 321 321 322 322 323 324 323 320 318 316 316 314 312 311 310 309 309 308
318 318 318 318 319 320 320 320 320 320 320 320 320 322 322 322 319 316 314 314 312 311 310 309 308 309 308
314 315 316 316 317 316 318 319 319 320 320 319 318 319 319 319 317 315 314 313 312 311 310 307 308 307 307
308 310 311 311 313 315 314 316 318 319 318 318 317 317 317 316 315 314 314 313 312 310 308 306 307 306 307
304 305 307 309 311 311 312 312 314 316 317 316 317 318 317 316 316 315 313 312 311 310 306 305 305 306 306
299 301 304 304 307 308 309 310 311 313 315 315 316 316 316 316 316 315 314 311 310 308 306 305 304 305 304
294 297 300 300 303 305 306 308 309 309 311 311 313 312 316 315 315 315 313 311 310 307 305 303 303 303 303
293 294 293 294 299 302 304 305 307 308 309 309 310 310 310 312 312 312 312 310 309 305 302 302 304 303 303
289 289 289 289 291 296 301 302 305 306 307 308 308 307 306 308 308 307 308 308 306 303 302 301 301 302 302
287 287 287 287 288 290 298 302 302 304 305 306 306 306 306 306 307 305 307 307 304 302 301 301 301 301 301
288 289 290 290 290 295 294 299 301 301 303 304 304 305 305 306 306 304 304 305 303 301 301 301 301 301 300
287 288 288 290 290 289 295 296 298 301 299 302 303 303 301 303 307 307 304 303 301 301 300 300 301 301 298
286 286 287 287 288 290 292 295 296 299 299 300 303 300 300 300 305 307 305 304 301 300 300 300 299 299 295
286 286 287 287 288 290 292 293 294 297 297 298 299 298 298 298 301 301 303 301 301 300 298 299 298 296 290
285 285 285 286 288 289 291 291 293 294 296 296 297 295 297 297 299 300 299 299 299 298 299 298 297 293 289
284 284 284 285 287 289 291 291 291 292 293 295 296 296 297 296 296 298 299 297 297 295 296 296 295 291 288

GFSFLT2_850_thetae_108.txt.gz
Theta_e
319 319 319 320 321 320 320 321 321 321 320 320 321 321 321 322 323 323 324 323 324 321 320 318 314 311 310
317 320 320 320 320 321 322 321 322 321 320 322 322 322 322 323 323 323 324 325 323 321 320 317 313 311 310
309 313 315 317 318 318 319 319 320 320 320 320 321 320 320 321 322 323 324 324 321 320 318 315 312 310 309
302 306 308 311 314 315 316 316 316 317 318 319 319 320 320 320 319 321 323 320 319 318 315 313 312 310 309
295 298 303 306 309 310 311 312 314 314 314 317 319 320 318 318 319 321 319 319 317 316 314 313 311 310 307
293 297 298 301 304 306 307 309 309 310 311 313 315 316 317 317 318 318 318 317 316 314 314 312 311 310 307
293 294 295 298 300 302 303 304 306 308 308 309 311 312 314 316 317 317 317 315 314 314 313 312 311 308 306
293 293 293 292 294 297 299 301 302 304 306 307 309 310 311 312 314 316 316 315 315 314 311 311 310 306 305
289 290 292 291 290 290 291 294 297 301 303 304 306 308 309 310 311 312 312 313 314 313 312 310 309 306 304
287 287 287 287 287 288 293 294 296 298 300 302 304 306 307 308 309 310 310 310 310 309 309 310 309 306 304
288 287 286 287 288 288 288 292 294 295 298 301 302 304 306 307 308 307 308 308 308 307 306 305 306 305 304
288 287 286 287 287 289 290 289 290 293 295 298 300 302 304 305 305 306 306 305 306 307 305 304 303 303 304
287 285 285 286 287 287 287 288 289 288 294 296 299 300 301 302 303 304 304 304 304 305 304 303 305 305 304
287 285 285 285 286 286 286 287 289 291 293 295 297 298 299 301 302 303 302 302 301 303 303 302 302 301 303
286 285 284 285 284 285 285 287 289 290 291 294 296 296 298 299 299 300 300 300 301 303 301 300 300 301 302
284 284 284 284 284 284 286 287 289 291 291 292 293 295 296 297 297 297 297 299 299 299 300 300 300 300 300
285 284 283 283 283 284 285 287 289 289 290 291 292 292 293 294 295 295 295 297 299 298 299 299 300 299 300

GFSFLT2_850_thetae_114.txt.gz
Theta_e
305 305 307 312 315 318 319 320 320 320 323 322 321 321 320 320 321 322 321 321 322 321 321 323 325 323 323
295 299 300 302 307 311 312 316 320 320 319 321 321 321 320 320 320 320 320 320 320 321 321 321 322 322 322
292 293 294 296 299 303 307 309 311 315 317 318 320 320 319 320 321 321 320 320 320 320 320 321 322 322 322
289 290 291 293 296 299 301 305 307 309 312 312 315 316 318 319 319 320 320 321 321 322 322 322 322 323 323
287 288 289 290 293 293 296 298 301 304 307 308 310 312 313 314 315 318 318 319 319 320 320 322 322 323 323
288 289 290 291 292 293 292 292 294 297 302 304 306 307 309 312 314 317 319 319 319 318 320 321 322 322 323
289 288 289 290 290 290 291 292 292 291 292 295 301 304 305 307 310 313 316 318 318 319 318 320 321 322 319
288 288 288 288 289 288 288 289 289 288 288 292 292 294 300 302 305 310 314 317 317 319 319 320 320 318 319
288 288 287 288 288 288 287 287 287 287 288 291 290 293 294 296 299 304 310 312 313 314 316 317 318 318 317
287 288 287 287 288 288 287 287 288 288 293 294 293 294 297 299 300 299 304 309 311 312 313 317 317 316 315
286 286 286 287 287 286 286 286 287 287 288 289 289 291 292 294 299 301 301 305 307 309 310 311 312 314 315
285 285 285 285 285 286 286 285 285 286 286 286 286 287 288 290 292 294 298 299 303 306 307 309 310 310 312
284 285 285 286 287 286 285 284 284 285 285 286 285 286 287 288 288 291 294 299 301 304 305 305 307 308 308
283 283 284 284 286 285 284 284 283 284 284 285 286 287 287 288 290 290 293 295 298 300 302 304 304 305 306
283 283 283 284 284 284 284 283 283 283 284 285 287 287 288 288 289 290 292 293 295 297 300 302 303 303 304
283 283 283 284 284 284 284 283 283 283 283 284 286 287 288 289 289 290 291 292 294 296 298 299 301 302 303
282 282 283 283 284 284 284 283 283 283 284 285 287 288 288 289 289 290 292 292 293 295 296 298 299 300 301

GFSFLT2_850_thetae_120.txt.gz
Theta_e
289 289 289 289 289 289 290 293 302 302 307 306 309 314 321 321 323 324 324 324 324 324 322 322 323 323 327
289 289 289 289 288 288 289 289 291 294 301 305 306 308 316 318 320 322 323 323 325 322 322 322 322 323 324
289 289 289 289 289 289 288 288 289 289 292 299 306 305 307 312 316 318 321 323 323 323 322 322 322 322 322
289 288 288 288 288 288 288 288 289 289 289 292 296 302 304 305 308 312 317 319 322 322 321 321 321 322 322
288 288 287 287 287 287 287 287 288 288 289 289 289 290 293 300 303 307 308 312 319 320 321 321 321 322 322
287 286 286 286 286 287 287 288 288 288 287 288 288 289 289 289 292 302 305 306 310 313 317 319 320 320 320
286 285 285 286 287 287 288 287 287 287 287 287 287 287 289 289 291 290 297 303 306 309 311 314 317 318 319
285 285 286 286 286 287 286 286 286 287 286 286 288 290 290 291 297 297 294 296 300 305 308 311 313 316 317
285 285 285 285 285 284 284 285 285 285 286 287 287 286 286 288 290 297 297 298 297 300 305 308 310 314 317
285 285 285 284 283 283 284 285 285 285 285 285 284 285 285 286 289 290 294 296 298 300 304 308 309 312 316
284 284 284 283 283 283 283 283 284 286 285 285 284 284 284 284 285 287 287 288 292 296 300 305 308 310 312
283 283 283 282 282 282 282 283 283 285 286 285 284 283 283 283 284 286 286 287 287 289 298 303 307 309 308
282 282 282 282 282 282 282 283 283 284 285 284 283 283 282 282 283 284 285 286 287 288 291 300 304 306 306
281 281 282 282 282 282 282 283 283 283 283 283 283 283 283 282 283 284 285 285 286 288 291 297 300 301 303
281 281 281 280 280 281 282 282 282 282 283 283 283 283 284 284 283 284 285 286 286 287 288 291 298 300 300
282 281 281 280 280 281 281 281 282 282 283 283 283 283 283 284 285 285 286 287 288 288 288 288 292 297 299
282 282 281 280 280 280 281 281 282 282 283 283 283 283 282 282 284 285 286 287 288 288 289 289 289 291 295

GFSFLT2_850_thetae_126.txt.gz
Theta_e
292 292 291 290 290 289 289 289 289 289 289 289 290 290 290 291 291 295 305 307 307 308 318 322 323 323 324
291 291 291 291 289 289 288 289 289 289 289 289 289 289 289 290 290 290 292 304 307 307 307 313 319 321 322
290 290 290 290 290 288 288 288 289 288 289 289 289 289 289 289 289 290 290 291 302 308 307 306 308 318 321
290 290 289 289 289 289 289 289 288 288 289 289 288 288 288 288 289 289 290 291 292 295 306 306 306 309 319
289 289 289 289 288 288 288 288 287 288 288 289 288 287 287 288 288 288 288 293 294 292 297 306 306 306 309
289 289 289 288 288 288 287 287 287 288 288 287 288 288 287 287 287 287 287 288 294 296 296 295 304 305 306
287 288 288 287 287 287 287 287 287 287 286 286 287 287 288 288 287 287 287 287 288 293 295 295 295 304 305
287 287 286 286 287 286 286 286 286 286 286 285 286 287 287 287 286 286 286 286 287 287 288 290 294 297 304
287 286 286 286 286 286 285 285 285 285 285 285 286 285 285 286 287 286 285 286 286 286 287 287 289 294 300
286 286 285 285 284 284 284 284 284 284 284 284 284 284 285 285 286 285 285 285 285 285 286 287 287 289 295
285 285 284 284 284 284 284 283 283 283 283 283 283 283 284 284 284 285 284 284 284 285 285 286 287 288 292
284 283 283 283 283 283 282 282 282 282 282 282 282 283 283 284 284 284 284 284 284 284 285 287 286 287 292
283 283 283 283 282 282 282 282 281 282 282 282 283 283 283 283 283 283 284 284 284 285 285 285 286 287 289
283 283 282 282 281 281 281 281 281 281 281 281 282 282 282 283 283 283 283 283 284 285 285 286 287 287 288
282 282 282 282 281 281 281 280 280 280 281 281 282 282 282 283 283 283 283 283 283 284 285 286 287 287 288
283 283 283 282 281 281 280 280 280 280 280 280 280 281 282 282 283 283 283 283 283 283 283 284 285 287 288
283 283 282 282 281 281 280 280 280 280 280 280 280 280 280 282 282 283 283 283 282 283 283 284 285 287 287

GFSFLT2_850_thetae_129.txt.gz
Theta_e
291 291 291 291 291 291 290 290 290 289 289 289 289 289 290 290 290 290 290 291 292 292 297 307 307 309 313
290 291 291 291 290 290 290 289 290 290 290 289 289 289 289 288 289 289 289 290 290 291 292 296 307 308 308
290 290 290 290 290 290 289 289 289 290 288 288 291 289 288 288 288 288 288 289 289 290 291 292 296 305 307
290 289 290 290 290 289 289 288 289 288 288 289 289 288 287 288 288 288 288 287 288 288 290 291 292 293 305
289 290 289 289 289 289 288 288 288 287 288 289 288 287 287 287 287 289 288 287 287 289 288 288 290 294 294
288 288 288 288 288 288 288 287 287 287 287 287 286 287 286 286 287 289 287 287 287 287 287 287 288 289 294
288 287 287 287 287 286 286 287 287 286 286 286 286 286 285 286 287 287 286 288 288 286 286 287 287 288 288
287 287 287 286 286 286 286 286 286 286 286 286 286 285 286 286 285 285 287 288 287 286 285 286 286 287 288
287 287 287 287 287 287 286 286 285 285 285 285 285 285 285 284 285 286 287 286 286 286 286 285 285 286 287
286 286 286 286 285 285 284 284 284 284 284 284 284 284 284 283 285 284 284 284 286 285 285 284 285 286 287
286 285 285 285 284 284 284 284 283 283 283 283 283 282 282 282 283 283 283 284 284 284 284 284 285 287 286
285 284 284 284 284 284 283 283 283 283 283 282 281 281 281 282 282 282 283 283 283 284 283 284 285 285 286
284 284 284 284 283 283 283 282 282 282 282 282 281 281 281 282 282 282 283 283 283 283 284 284 284 285 286
283 283 283 282 283 282 282 282 282 282 281 281 281 281 281 282 282 282 282 282 283 283 283 283 284 285 285
283 283 283 282 282 282 281 281 281 281 281 281 281 281 281 281 281 281 282 283 283 283 283 283 283 283 284
282 282 282 282 281 281 281 281 281 281 281 280 280 280 280 280 281 282 283 283 283 283 283 283 283 284 284
283 282 282 282 281 281 281 281 281 281 280 280 280 280 280 281 280 281 282 282 282 282 282 282 282 284 284

GFSFLT2_850_thetae_132.txt.gz
Theta_e
290 290 290 291 291 290 290 290 289 289 289 290 289 289 290 290 289 289 289 289 290 290 290 293 293 293 300
290 290 290 290 290 290 290 290 289 289 290 289 288 289 290 289 288 288 289 289 289 288 289 290 291 291 292
290 289 290 289 290 289 290 289 289 289 289 287 288 290 290 288 288 288 288 288 288 288 288 289 290 290 290
288 288 288 290 289 289 289 289 288 288 288 288 288 288 288 287 287 287 287 289 289 287 288 289 288 288 289
287 287 288 288 288 288 288 288 288 287 287 287 287 287 287 287 287 286 287 289 289 287 288 288 287 287 287
288 288 288 287 287 287 287 287 286 287 287 286 286 286 286 286 286 286 288 288 286 288 289 289 287 287 287
289 288 288 287 287 286 286 286 286 286 286 286 285 285 285 285 285 286 285 285 287 288 288 288 288 287 287
287 287 287 287 287 287 287 287 286 286 285 284 285 284 285 285 284 284 284 287 288 288 286 287 287 287 286
287 287 287 287 287 287 287 286 285 284 284 284 284 284 283 284 284 284 284 285 285 284 285 286 286 286 285
287 287 286 286 285 286 285 284 284 284 284 283 283 283 283 282 283 283 283 283 283 283 285 285 285 284 286
287 286 286 285 285 284 284 284 284 283 284 283 282 282 281 281 282 281 282 282 282 282 283 283 283 284 285
286 286 285 284 284 284 284 284 283 283 283 282 282 282 281 281 281 281 281 281 282 282 282 283 283 283 283
285 285 284 284 284 283 283 283 283 283 283 282 282 282 281 281 281 281 281 282 282 282 282 283 283 283 283
284 284 283 283 282 282 282 282 282 283 283 282 281 281 281 281 281 281 281 281 281 281 282 283 283 283 283
284 283 283 282 282 282 281 281 281 282 282 282 282 281 280 280 280 280 280 280 281 282 282 282 283 282 282
283 282 282 282 281 281 281 281 281 282 282 282 281 281 281 281 281 281 281 280 281 281 282 282 282 282 282
282 281 281 281 281 281 282 282 282 282 282 282 282 281 280 280 281 280 280 281 281 281 281 281 281 282 282

GFSFLT2_850_thetae_135.txt.gz
Theta_e
290 290 290 290 290 290 290 290 290 290 290 289 289 288 289 292 292 289 289 289 289 290 290 289 289 291 293
290 290 290 289 289 290 290 290 290 289 289 289 289 288 289 290 289 288 288 288 288 289 289 289 289 292 291
289 289 289 288 288 289 289 289 289 289 289 288 288 288 288 288 288 288 288 288 287 289 291 289 288 289 289
288 288 288 288 288 288 289 289 289 289 288 288 288 288 287 287 287 287 287 287 287 288 290 288 288 290 289
287 288 288 289 288 288 288 287 288 288 288 287 287 287 287 287 287 287 286 286 288 289 287 286 289 290 290
288 288 288 288 288 287 287 287 287 287 287 287 286 286 286 286 286 286 286 286 286 285 286 289 289 289 289
288 288 287 287 287 287 287 287 287 287 286 286 285 285 285 285 285 286 286 285 285 286 288 288 288 287 288
287 287 287 287 288 288 288 287 287 286 286 284 285 285 285 285 285 285 285 285 285 285 285 285 285 286 287
287 287 287 288 288 287 287 286 286 285 284 284 284 283 284 284 284 284 284 284 283 283 284 284 284 285 285
287 287 287 287 287 286 285 285 285 284 284 283 283 282 282 283 283 283 283 284 284 283 283 283 283 283 283
287 287 287 287 286 285 284 284 284 284 284 283 282 282 281 281 283 283 282 283 283 283 283 283 282 282 283
287 287 286 286 285 284 284 284 284 283 284 283 282 282 282 282 282 282 282 283 282 283 283 283 282 282 282
286 286 285 285 284 284 284 284 284 284 284 283 283 282 281 281 281 282 282 283 282 282 282 281 282 282 282
285 285 284 284 283 283 283 284 283 285 285 284 283 282 281 281 281 281 282 281 282 281 281 281 281 281 282
285 284 284 283 282 282 282 282 282 283 284 284 283 282 282 282 281 281 282 282 282 281 281 281 281 281 282
284 283 282 282 281 282 282 281 282 283 283 283 283 282 282 283 283 283 282 282 282 281 281 280 281 281 281
282 282 281 281 281 281 282 281 282 283 283 283 283 282 282 281 283 282 282 281 281 281 281 280 280 281 281

GFSFLT2_850_thetae_138.txt.gz
Theta_e
290 289 289 289 290 289 289 290 290 290 290 290 289 289 288 292 292 291 289 290 290 290 290 291 291 291 292
289 289 289 289 289 289 288 289 289 290 289 289 289 288 288 290 290 289 288 289 289 289 288 289 290 290 290
289 288 288 288 288 288 289 289 289 289 288 289 288 288 288 288 288 288 287 287 287 287 288 289 290 289 289
288 288 288 288 288 289 289 289 289 288 288 288 287 287 287 287 287 288 287 287 287 287 290 290 289 288 290
288 288 288 288 288 288 288 288 288 288 288 288 288 287 287 287 286 286 287 287 287 288 289 287 286 288 290
288 288 288 288 288 287 287 287 287 288 287 288 287 287 287 287 287 287 287 286 286 287 286 286 289 289 289
288 288 288 288 287 287 288 288 288 288 287 286 286 287 286 287 286 286 286 286 286 286 286 287 287 286 286
287 288 288 287 287 288 289 288 288 287 286 285 285 285 286 286 286 286 285 285 285 284 284 284 285 285 285
288 288 288 288 288 288 288 287 286 286 285 285 285 285 285 286 285 285 285 285 285 284 284 284 284 284 285
288 288 288 287 288 287 287 286 285 285 285 284 284 283 283 284 285 284 285 285 285 284 284 284 284 283 284
288 288 288 288 287 287 286 286 284 284 284 284 283 283 282 282 284 284 284 285 284 284 284 284 284 283 283
288 288 288 287 286 286 285 284 284 284 284 284 283 283 283 282 282 284 284 283 283 284 284 284 283 283 282
288 287 287 286 285 285 284 284 284 284 284 283 283 283 282 282 282 283 282 283 283 283 283 283 283 282 282
287 286 285 285 285 284 283 283 282 284 284 284 283 283 282 283 282 282 283 282 283 283 283 283 283 282 282
286 285 285 285 284 284 282 282 281 283 285 285 284 283 283 282 282 283 283 283 284 283 283 283 282 282 282
285 284 284 284 283 282 281 281 281 282 283 284 284 283 283 284 284 284 283 283 283 283 282 282 282 283 282
285 284 283 282 281 281 281 281 281 282 283 283 283 282 282 281 283 284 283 283 283 282 282 282 282 282 282

GFSFLT2_850_thetae_144.txt.gz
Theta_e
292 291 290 290 289 289 289 289 289 289 289 289 290 290 290 290 290 293 293 292 291 291 291 291 294 294 294
291 291 290 290 289 289 289 289 289 289 289 289 290 290 290 289 289 290 290 290 289 289 289 289 290 292 294
291 291 290 290 289 289 289 289 289 289 289 289 289 289 289 289 290 290 289 288 288 288 288 288 289 290 292
290 290 290 289 289 289 289 289 289 289 288 288 289 289 288 288 288 288 288 288 288 287 288 288 288 290 290
290 289 289 289 289 289 288 288 289 289 288 289 289 288 288 288 288 288 288 287 287 287 288 288 289 290 289
291 289 289 289 289 289 288 288 288 289 288 288 289 289 289 288 287 287 287 287 287 287 287 287 287 287 289
295 291 289 289 288 289 288 287 288 288 287 288 288 289 288 288 287 287 287 287 287 287 286 286 286 286 286
292 292 289 288 287 287 287 288 288 288 287 287 288 288 288 288 287 287 287 287 286 286 285 285 285 285 285
294 292 287 287 287 287 288 288 289 287 287 287 287 287 286 287 287 287 287 285 285 284 285 285 285 285 285
294 290 287 287 288 289 289 290 288 287 287 286 286 286 285 286 286 285 284 285 286 285 285 285 285 285 285
292 290 289 288 288 288 289 288 288 288 287 287 286 285 284 284 285 286 286 286 286 286 285 285 285 284 285
289 288 288 288 288 289 289 288 287 287 286 286 285 284 284 283 283 284 285 285 286 286 286 285 285 285 284
288 288 288 288 288 289 288 287 286 286 285 285 284 284 283 283 283 283 284 285 286 286 286 285 285 285 285
288 288 288 288 288 288 287 286 285 285 285 284 284 283 283 282 282 283 284 283 286 285 285 285 285 285 285
288 288 288 288 288 287 286 286 285 285 284 284 283 282 282 282 281 282 283 284 285 285 284 284 285 285 285
288 288 287 286 287 287 286 285 284 284 283 283 283 282 282 283 283 284 284 284 284 284 284 284 284 285 285
288 286 286 287 286 285 285 284 284 283 282 282 282 281 281 281 284 283 283 284 283 283 284 284 284 284 284

GFSFLT2_850_thetae_147.txt.gz
Theta_e
295 294 292 291 291 290 290 290 290 291 291 290 290 290 290 291 291 291 292 294 293 293 294 293 295 296 296
294 296 293 292 291 290 290 290 290 290 290 290 290 290 290 290 290 290 291 291 291 291 291 291 292 294 294
293 295 294 292 291 291 290 290 289 290 290 290 290 289 289 290 290 290 291 290 288 288 288 288 290 291 292
292 293 293 294 292 291 290 289 289 289 289 289 289 289 289 289 289 288 289 289 288 288 287 288 290 289 292
293 291 292 295 297 291 289 289 289 289 289 290 289 289 289 289 289 289 288 288 288 287 287 289 290 291 292
294 293 293 294 297 292 289 289 289 289 289 289 289 289 288 289 289 289 288 288 287 287 288 288 288 289 289
294 293 293 295 295 291 289 289 288 288 288 289 289 290 288 288 288 288 288 287 287 287 287 287 287 288 289
295 294 293 295 295 293 289 289 288 287 288 288 289 289 288 288 288 287 287 287 287 287 287 286 287 287 286
293 293 292 294 294 291 288 288 287 288 288 288 288 288 288 287 287 288 288 287 287 286 286 286 286 286 285
294 293 293 294 293 289 287 287 287 288 289 288 287 287 286 286 287 286 285 285 285 284 285 286 285 285 285
294 294 293 293 292 288 288 288 289 288 289 288 287 286 286 286 286 286 286 286 287 286 286 286 286 285 285
293 292 292 292 291 289 289 288 288 289 289 287 287 286 286 285 284 284 285 285 286 286 286 286 286 285 285
293 293 293 291 289 288 289 289 289 289 288 287 286 286 285 284 284 283 283 284 285 286 286 286 286 286 286
292 292 291 289 288 288 288 288 288 288 287 286 286 285 284 284 283 283 283 283 285 285 285 285 286 286 286
291 291 290 289 288 288 288 288 287 287 287 286 285 285 284 283 282 282 283 284 284 285 284 285 285 285 286
291 290 290 288 288 288 288 287 287 286 286 285 284 283 282 282 282 283 283 284 284 284 284 283 284 285 285
290 290 289 288 288 287 286 287 286 286 285 284 283 282 281 280 282 283 283 284 283 283 284 284 284 285 285

GFSFLT2_850_thetae_153.txt.gz
Theta_e
298 298 297 298 299 299 299 299 298 298 297 296 294 293 293 293 293 293 293 293 292 294 295 296 295 297 297
299 299 298 298 297 297 297 298 298 299 298 299 297 293 292 292 292 293 293 293 291 292 294 293 293 294 295
300 300 299 297 297 297 296 296 296 297 297 298 300 297 293 292 291 292 293 293 291 292 292 291 291 292 293
299 299 298 300 298 296 296 296 296 296 296 297 299 299 295 292 291 291 293 293 291 290 290 289 290 290 290
297 297 296 297 299 300 296 296 295 294 294 295 296 298 297 291 290 291 292 292 291 290 289 290 290 289 289
297 297 297 297 298 298 297 294 293 295 294 294 295 295 293 290 290 291 291 292 290 290 289 289 289 289 289
298 297 296 297 297 296 295 295 295 294 293 293 294 292 292 291 290 290 291 292 290 289 289 289 289 289 291
295 296 297 299 296 295 295 294 293 293 292 293 293 292 292 290 290 290 291 291 290 289 288 289 289 289 290
295 295 295 296 295 293 292 292 292 292 292 293 292 292 291 290 290 290 290 290 289 288 288 288 289 290 290
293 294 295 295 295 294 292 292 292 292 292 292 292 291 289 290 289 289 290 288 288 287 287 287 287 289 288
293 293 293 294 294 294 293 292 292 292 293 291 291 290 289 289 289 288 288 288 288 287 287 286 287 287 287
291 292 293 294 294 294 293 293 292 293 293 291 290 290 289 288 288 288 287 287 287 286 286 286 286 286 286
291 291 292 292 292 293 292 293 292 292 291 291 290 289 288 288 288 288 287 286 286 286 285 285 285 285 285
290 290 291 291 292 292 292 291 291 291 291 290 290 289 289 289 289 288 287 286 286 285 285 284 284 285 285
289 289 290 290 291 292 292 291 290 290 290 289 289 288 288 288 288 287 286 286 285 285 284 284 283 284 285
289 289 289 290 290 291 291 290 290 289 289 288 288 288 288 287 287 286 285 285 285 284 284 283 283 284 285
288 288 289 289 290 290 290 290 290 289 288 288 288 288 287 286 286 286 285 285 284 283 283 283 284 285 285

GFSFLT2_850_thetae_156.txt.gz
Theta_e
302 303 303 301 300 300 299 299 298 298 299 299 299 298 297 296 295 294 293 293 294 295 295 295 296 296 296
300 301 302 302 302 300 301 300 300 300 298 298 299 298 299 299 297 295 293 292 293 294 294 294 295 294 294
300 300 300 300 301 300 300 300 300 301 300 298 297 297 297 298 299 298 294 292 292 293 293 293 293 293 292
298 298 298 298 298 298 299 300 301 301 301 299 297 296 296 297 298 299 295 291 291 292 292 293 292 292 291
297 298 297 296 296 296 296 297 298 299 299 299 298 297 296 296 296 297 296 291 290 291 292 292 291 291 291
295 295 295 296 296 296 296 296 295 295 297 299 298 297 296 296 297 296 294 291 290 291 291 292 291 290 290
295 295 295 295 295 295 295 295 295 295 294 294 295 295 296 296 295 295 293 291 291 291 292 292 291 290 290
292 293 292 292 294 294 294 294 295 294 293 293 294 294 295 294 294 294 293 291 291 290 291 291 290 291 291
292 292 292 293 293 293 294 295 294 294 294 293 293 293 293 293 293 293 292 291 290 290 291 291 290 290 290
291 292 292 293 292 292 293 293 293 293 293 292 292 292 292 293 293 292 291 291 290 290 290 290 290 289 289
290 290 290 290 290 291 292 292 292 293 293 293 292 292 291 292 291 291 290 290 289 288 288 287 287 288 288
288 288 289 289 289 290 291 291 292 292 292 292 292 292 291 290 290 290 289 289 289 288 288 287 287 287 288
288 289 289 289 289 289 290 290 291 291 292 291 291 292 291 291 291 290 288 288 288 287 287 286 286 286 286
288 287 288 288 289 289 289 290 290 291 291 291 291 291 291 290 289 289 288 288 288 287 287 286 286 285 285
287 287 287 287 288 288 289 289 290 290 291 291 291 290 290 290 289 289 288 288 288 287 286 286 286 285 284
287 287 287 287 288 288 288 289 290 290 290 290 289 289 289 289 289 288 288 288 287 287 286 285 285 285 284
287 287 287 287 288 288 288 289 290 289 289 289 289 288 288 287 288 288 287 287 287 286 285 285 284 284 284